Satellite-Ground Cal/Val Region Overpasses Predictions

Prediction of Satellite NPP Overpassing Cal/Val Region: PacNW

Region Location: (Latitude: 10.00, Longitude: 139.50) to (Latitude: 22.70, Longitude: 165.60).

Table of predicted overpasses for the next 14.0 days since TLE Epoch: 4/21/2018
Interval Starting Time Starting Location Ending Time Ending Location
1 04/22/2018 03:36:15 ( 10.03, 145.62) 04/22/2018 03:39:50 ( 22.65, 142.62)
2 04/22/2018 14:29:46 ( 11.67, 165.60) 04/22/2018 14:30:14 ( 10.02, 165.22)
3 04/22/2018 16:08:08 ( 22.69, 142.86) 04/22/2018 16:11:44 ( 10.02, 139.84)
4 04/23/2018 03:17:14 ( 10.04, 150.37) 04/23/2018 03:20:49 ( 22.67, 147.37)
5 04/23/2018 15:49:06 ( 22.68, 147.62) 04/23/2018 15:52:42 ( 10.00, 144.60)
6 04/24/2018 02:58:12 ( 10.05, 155.13) 04/24/2018 03:01:47 ( 22.68, 152.12)
7 04/24/2018 15:30:05 ( 22.67, 152.37) 04/24/2018 15:33:40 ( 10.05, 149.37)
8 04/25/2018 02:39:10 ( 10.01, 159.90) 04/25/2018 02:42:46 ( 22.69, 156.88)
9 04/25/2018 15:11:04 ( 22.66, 157.13) 04/25/2018 15:14:39 ( 10.04, 154.12)
10 04/26/2018 02:20:08 ( 10.02, 164.65) 04/26/2018 02:23:43 ( 22.65, 161.65)
11 04/26/2018 14:52:02 ( 22.65, 161.88) 04/26/2018 14:55:37 ( 10.03, 158.88)
12 04/27/2018 03:42:37 ( 10.04, 144.03) 04/27/2018 03:46:12 ( 22.67, 141.02)
13 04/27/2018 14:34:13 ( 18.41, 165.60) 04/27/2018 14:36:36 ( 10.01, 163.63)
14 04/27/2018 16:14:30 ( 22.69, 141.27) 04/27/2018 16:16:34 ( 15.41, 139.51)
15 04/28/2018 03:23:35 ( 10.06, 148.78) 04/28/2018 03:27:10 ( 22.68, 145.78)
16 04/28/2018 15:55:28 ( 22.67, 146.03) 04/28/2018 15:59:03 ( 10.05, 143.02)
17 04/29/2018 03:04:33 ( 10.01, 153.55) 04/29/2018 03:08:09 ( 22.70, 150.53)
18 04/29/2018 15:36:27 ( 22.66, 150.78) 04/29/2018 15:40:02 ( 10.04, 147.78)
19 04/30/2018 02:45:31 ( 10.03, 158.30) 04/30/2018 02:49:06 ( 22.65, 155.30)
20 04/30/2018 15:17:25 ( 22.64, 155.53) 04/30/2018 15:21:00 ( 10.02, 152.53)
21 05/01/2018 02:26:30 ( 10.05, 163.06) 05/01/2018 02:30:05 ( 22.67, 160.05)
22 05/01/2018 14:58:23 ( 22.69, 160.30) 05/01/2018 15:01:59 ( 10.01, 157.29)
23 05/02/2018 02:10:09 ( 19.52, 165.59) 05/02/2018 02:11:03 ( 22.69, 164.81)
24 05/02/2018 03:48:57 ( 10.01, 142.45) 05/02/2018 03:52:28 ( 22.40, 139.51)
25 05/02/2018 14:39:21 ( 22.67, 165.06) 05/02/2018 14:42:56 ( 10.05, 162.05)
26 05/02/2018 16:20:51 ( 22.66, 139.68) 05/02/2018 16:21:03 ( 21.96, 139.50)
27 05/03/2018 03:29:56 ( 10.03, 147.20) 05/03/2018 03:33:31 ( 22.65, 144.20)
28 05/03/2018 16:01:50 ( 22.65, 144.43) 05/03/2018 16:05:25 ( 10.03, 141.43)
29 05/04/2018 03:10:55 ( 10.04, 151.96) 05/04/2018 03:14:30 ( 22.67, 148.95)
30 05/04/2018 15:42:47 ( 22.69, 149.20) 05/04/2018 15:46:23 ( 10.01, 146.19)
31 05/05/2018 02:51:52 ( 10.00, 156.72) 05/05/2018 02:55:28 ( 22.69, 153.71)


NCC Satellite Cal/Val Overpasses Prediction Service
